Location: Unspecified
(50.1700°N, 6.8600°E)
Time: 03:33:54
(UTC+00:00)

Tsikada Rocket - Pass Details

Date: 24 January 2019
Orbit: 959 x 1008 km, 82.9° (Epoch: 19 February)

Event Time Altitude Azimuth Distance (km) Brightness Sun altitude
Rises 05:30:17 0° 216° (SW) 3,633 6.7 -16.9°
Reaches altitude 10° 05:33:00 10° 225° (SW) 2,694 6.0 -16.5°
Maximum altitude 05:38:36 36° 291° (WNW) 1,489 4.5 -15.6°
Drops below altitude 10° 05:44:19 10° 357° (N) 2,732 6.2 -14.7°
Sets 05:47:06 0° 6° (N) 3,692 7.0 -14.3°
